Regional Weather Roundup
Issued by NWS

Home | Current Version | Previous Version | Text Only | Print | Product List | Glossary Off
Versions: 1 2 3 4 5 6 7 8 9 10 11 12 13 14 15 16 17 18 19 20 21 22 23 24 25 26 27

000
ASUS45 KTFX 271810
RWRMT
MONTANA REGIONAL WEATHER ROUNDUP
NATIONAL WEATHER SERVICE GREAT FALLS MT
1200 PM MDT THU APR 27 2017

NOTE: "FAIR" INDICATES FEW OR NO CLOUDS BELOW 12000 FEET WITH NO
SIGNIFICANT WEATHER AND/OR OBSTRUCTIONS TO VISIBILITY.

MTZ001>007-043-271900-
WEST OF THE DIVIDE

CITY           SKY/WX    TMP DP  RH WIND       PRES   REMARKS
KALISPELL      LGT RAIN  39  37  92 SE22      29.76R WCI  29
MISSOULA       CLOUDY    45  27  49 W9        29.82R
BUTTE          FLURRIES  37  23  56 NW16G24   29.74R WCI  28
MULLAN PASS    SNOW      26  26 100 VRB5      29.78R VSB 1/4
ANACONDA         N/A     41  19  42 W17       29.74S
DEER LODGE       N/A     43  21  42 NW13      29.76R
EUREKA           N/A     43  36  75 E7        29.74R
HAMILTON         N/A     45  19  36 NW13      29.81S
LIBBY            N/A     48  28  46 S3        29.76R
$$

MTZ008-052>055-271900-
SOUTHWEST MONTANA

CITY           SKY/WX    TMP DP  RH WIND       PRES   REMARKS
BOZEMAN        CLOUDY    42  32  67 N3        29.71S
DILLON         CLOUDY    42  22  44 SE7       29.71S
W YELLOWSTONE  LGT SNOW  32  27  80 CALM      29.69R
ENNIS          FOG       34  30  86 N3        29.78R VSB 1
THREE FORKS      N/A     43  36  76 SW9       29.73R
$$

MTZ009-010-012-014-046-048-049-054-271900-
EAST SLOPES AND CENTRAL MONTANA

CITY           SKY/WX    TMP DP  RH WIND       PRES   REMARKS
CUT BANK       LGT SNOW  37  36  96 N17       29.70R FOG     WCI  27
GREAT FALLS    LGT RAIN  40  35  83 N13       29.68R
MALMSTROM AFB  LGT RAIN  40  38  93 NW7       29.69R
HELENA         CLOUDY    48  27  44 W25G32    29.70S
AUGUSTA        FLURRIES  38  37  96 N12       29.68R WCI  31
CHOTEAU          N/A     37  37 100 N10       29.71R WCI  30
RAYNESFORD     PTSUNNY   43  35  73 NW9       29.67R
$$

MTZ011-013-016-021-045-047-050-051-271900-
NORTH CENTRAL MONTANA

CITY           SKY/WX    TMP DP  RH WIND       PRES   REMARKS
HAVRE          CLOUDY    44  40  85 NE13      29.67R
LEWISTOWN      LGT RAIN  39  35  86 NW17      29.65R WCI  30
CHINOOK          N/A     39  37  93 NE6       29.67R
FORT BENTON      N/A     45  39  81 MISG      29.68R
GEYSER         PTSUNNY   43  36  78 W22G28    29.65R
JUDITH GAP     PTSUNNY   44  34  67 N20G25    29.62R
STANFORD         N/A     45  34  66 NW24      29.64R
$$

MTZ017>020-022>027-061-062-271900-
NORTHEAST MONTANA

CITY           SKY/WX    TMP DP  RH WIND       PRES   REMARKS
GLASGOW        CLOUDY    50  25  37 E13G18    29.68S
JORDAN           N/A     51  29  42 E16       29.64S
SIDNEY         SUNNY     48  24  39 E12       29.72F
WOLF POINT     SUNNY     51  27  39 E12G28    29.71S
PLENTYWOOD       N/A     45  21  39 E12G18    29.74F
POPLAR           N/A     45  25  45 E8G21     29.72S
SCOBEY           N/A     47  24  40 E10       29.72F
$$

MTZ028>42-056>058-271900-
SOUTHCENTRAL AND SOUTHEAST MONTANA

CITY           SKY/WX    TMP DP  RH WIND       PRES   REMARKS
BAKER          SUNNY     44  28  53 SE14G21   29.67S
BILLINGS       LGT RAIN  43  38  82 N15       29.62R
LIVINGSTON     LGT RAIN  37  34  89 W13       29.69R FOG     WCI  29
MILES CITY     CLOUDY    51  28  41 SE10      29.63S
BIG TIMBER     MOSUNNY   43  36  75 W20G29    29.68R
EKALAKA          N/A     45  29  53 E16       29.65R
LAUREL           N/A     45  34  65 N12       29.65R
ROUNDUP          N/A     44  38  79 N8        29.58S
$$

REGIONAL REPORTS...DAKOTAS

CITY           SKY/WX    TMP DP  RH WIND       PRES   REMARKS
WILLISTON      SUNNY     48  21  34 VRB7      29.74F
MINOT          SUNNY     45  19  35 N10       29.75F
DICKINSON      SUNNY     41  24  51 NE8       29.69S
BEACH            N/A     45  23  42 E16       29.71F
TIOGA            N/A     41  10  28 E10G20    29.76S
WATFORD CITY     N/A     45  19  36 E10G17    29.73F
BISMARCK       SUNNY     48  25  40 NE13      29.73F
GRAND FORKS    PTSUNNY   38  26  62 N16       29.69F WCI  29
FARGO          SUNNY     32  24  72 N17       29.70S WCI  21
BUFFALO SD       N/A     41  30  65 E14       29.60F
RAPID CITY     PTSUNNY   45  32  60 E10       29.64F
$$

REGIONAL REPORTS...WYOMING/IDAHO/WASHINGTON

CITY           SKY/WX    TMP DP  RH WIND       PRES   REMARKS
GILLETTE       CLOUDY    40  35  83 SE10      29.56S
SHERIDAN       LGT SNOW  34  32  92 N3        29.60R VSB 3/4
BUFFALO WY     LGT SNOW  35  32  88 N17       29.57R FOG     WCI  25
CODY           CLOUDY    44  33  65 N20       29.59F
YELLOWSTONE LA   N/A     30  23  75 NW14G23   29.64  WCI  19
IDAHO FALLS    LGT RAIN  39  34  82 S10       29.76R
SALMON         CLOUDY    45  25  45 NE10G18   29.79S
BOISE          CLOUDY    46  28  49 NW21G28   29.96S
SPOKANE        PTSUNNY   47  31  53 SW17      29.86R
$$

REGIONAL REPORTS...ALBERTA

CITY           SKY/WX    TMP DP  RH WIND       PRES   REMARKS
EDMONTON       CLOUDY    37  32  81 E9        29.79R WCI  31
CALGARY        PTSUNNY   43  34  70 NE6       29.70S
LETHBRIDGE     CLOUDY    39  36  87 E6        29.73R
MEDICINE HAT   PTSUNNY   46  32  57 N7        29.71S
MILK RIVER       N/A     37  36  93 NW8         N/A  WCI  31
$$

REGIONAL REPORTS...SASKATCHEWAN

CITY           SKY/WX    TMP DP  RH WIND       PRES   REMARKS
SWIFT CURRENT  CLOUDY    48  27  43 SE13G22   29.69R
REGINA         MOSUNNY   46  12  25 SE16G26   29.79F
SASKATOON      CLOUDY    43  23  45 E13       29.83S
VAL MARIE        N/A     48  27  43 S14G21      N/A
ROCKGLEN         N/A     45  28  53 SE9         N/A
$$




USA.gov is the U.S. government's official web portal to all federal, state and local government web resources and services.